Regional Weather Roundup
Issued by NWS

Home | Current Version | Previous Version | Text Only | Print | Product List | Glossary Off
Versions: 1 2 3 4 5 6 7 8 9 10 11 12 13 14 15 16 17 18 19 20 21 22 23 24 25 26 27 28 29 30 31 32 33 34 35 36 37 38 39 40 41 42 43 44 45 46 47 48

000
ASUS45 KCYS 222010
RWRWY

WYOMING REGIONAL WEATHER ROUNDUP
NATIONAL WEATHER SERVICE CHEYENNE WY
200 PM MDT WED MAR 22 2017

NOTE:  "FAIR" INDICATES FEW OR NO CLOUDS BELOW 12,000 FEET
WITH NO SIGNIFICANT WEATHER AND/OR OBSTRUCTIONS TO VISIBILITY.

WYZ001-222100-
YELLOWSTONE NATIONAL PARK

CITY           SKY/WX    TMP DP  RH WIND       PRES   REMARKS
LK YELLOWSTONE   N/A     44  27  51 VRB5      29.94F
W YELLOWSTONE  NOT AVBL

$$
WYZ002>013-054>058-071-098>099-222100-
NORTHERN WYOMING

CITY           SKY/WX    TMP DP  RH WIND       PRES   REMARKS
JACKSON        MOSUNNY   46  36  66 W5        29.91F
CODY           FAIR      64  26  23 W8        29.82F
GREYBULL       FAIR      59  42  53 CALM      29.79F
WORLAND        FAIR      66  41  40 NE6       29.79F
SHERIDAN       PTSUNNY   54  40  59 S6        29.83F
BUFFALO        FAIR      53  39  59 N3        29.86F
GILLETTE         N/A     60  39  45 N14       29.83R
HULETT         FAIR      63  36  36 W8        29.83S
NEWCASTLE      FAIR      63  32  31 SE14G24   29.83F

$$
WYZ014>020-022>026-101>103-222100-
CENTRAL WYOMING

CITY           SKY/WX    TMP DP  RH WIND       PRES   REMARKS
BIG PINEY      LGT RAIN  41  39  93 S5        29.99S
PINEDALE       CLOUDY    39  36  87 E8        29.99F WCI  34
DUBOIS         CLOUDY    48  30  49 NW10G21   29.90F
LANDER         CLOUDY    57  35  43 NW7       29.85F
RIVERTON       PTSUNNY   60  35  39 W10       29.86F
CASPER         FAIR      64  34  32 SW24G37   29.86F
DOUGLAS        FAIR      66  36  32 NE5       29.87F

$$
WYZ021-027>030-104>119-222100-
SOUTHERN WYOMING

CITY           SKY/WX    TMP DP  RH WIND       PRES   REMARKS
EVANSTON       LGT RAIN  48  37  65 NW12      29.93F
KEMMERER       RAIN      41  34  75 SW30G41   29.98S
FORT BRIDGER   CLOUDY    56  39  53 E9        29.97F
ROCK SPRINGS   PTSUNNY   53  37  54 N13       29.95F
DIXON            N/A     62  24  23 SW15G25   29.98F
RAWLINS        FAIR      61  24  24 SW28G45   29.96F
SARATOGA       FAIR      63  25  23 MISG      29.97F
LARAMIE        FAIR      64  18  17 SW33G41   29.94F
CHEYENNE       FAIR      66  31  27 S14       29.92F
TORRINGTON     PTSUNNY   65  31  28 SE15      29.86F
PINE BLUFFS    FAIR      66  32  28 S12G24    29.92F

$$



USA.gov is the U.S. government's official web portal to all federal, state and local government web resources and services.